CAPE
1 2 0 1 13 41 33 21 19 13 7 0 0 0 0 1 0 0 0 0 0 0 0 0 0 0 0 0 0 0 0 7 34 41 28 25 6 2
10 21 14 16 13 26 25 28 17 14 10 0 0 0 0 0 0 0 0 0 0 0 0 0 0 0 0 0 0 0 0 0 4 22 9 0 0 0
17 26 18 35 34 30 17 17 3 5 4 2 1 0 0 0 0 0 0 0 0 0 0 0 0 0 0 0 0 0 0 0 0 0 0 0 0 0
21 28 21 25 18 22 8 1 9 0 0 1 1 0 0 0 0 0 0 0 0 0 0 0 0 0 0 0 0 0 0 0 0 0 0 0 0 0
0 4 8 10 7 8 6 4 2 2 6 7 1 0 0 0 0 0 0 0 0 0 0 0 0 0 0 0 0 2 0 1 0 0 0 0 0 0
0 0 0 0 0 0 0 0 1 1 2 5 8 6 6 3 0 0 0 0 0 0 0 0 0 0 0 0 1 0 0 0 0 0 0 0 0 0
0 0 0 0 0 0 0 0 0 0 0 0 2 3 3 0 0 0 0 0 0 0 0 0 0 0 1 2 0 0 0 0 0 0 0 0 0 0
0 0 0 0 0 0 0 0 0 0 0 0 0 3 0 0 0 0 0 0 0 0 1 1 3 2 2 2 1 0 0 0 0 0 0 1 0 0
0 0 0 0 0 0 0 0 0 0 0 0 0 0 0 0 0 0 0 0 0 0 1 0 0 0 1 2 1 1 0 1 2 1 1 0 1 1
0 0 0 0 0 0 0 0 0 0 0 0 0 0 0 0 0 0 0 1 7 4 0 0 1 2 0 2 2 2 2 3 2 1 1 0 0 0
0 0 0 0 0 0 0 1 1 0 6 5 5 8 6 3 2 0 0 0 4 3 0 2 1 1 1 0 0 0 2 0 0 0 0 0 0 0
1 0 0 0 0 0 0 1 2 1 4 10 7 2 2 1 0 1 2 1 1 0 0 0 0 0 0 0 0 0 0 0 0 0 0 0 0 0
2 1 3 2 0 0 0 1 1 11 10 7 4 1 2 2 1 2 1 0 0 1 1 0 0 0 0 0 0 0 0 0 0 0 0 0 0 0
8 12 7 4 7 4 4 8 10 3 3 3 2 2 2 2 1 1 1 1 1 0 0 0 0 0 0 0 0 0 0 0 0 0 0 0 0 0
3 0 1 2 2 0 0 0 0 1 2 0 0 0 0 0 0 0 0 0 0 0 0 0 0 0 0 0 0 0 0 0 0 0 0 0 0 0
1 2 1 1 2 1 2 1 1 0 0 0 1 0 0 0 0 0 0 0 0 0 0 0 0 0 0 0 0 0 0 0 0 0 0 0 0 0
1 0 0 0 1 0 0 0 0 0 0 0 0 0 0 0 0 0 0 0 0 0 0 0 0 0 0 0 0 0 0 0 0 0 0 0 0 0
0 0 1 1 0 0 0 0 0 0 0 0 0 0 0 0 0 0 0 0 0 0 0 0 0 0 0 0 0 0 0 0 0 0 0 0 0 0
0 0 0 0 0 0 0 0 0 0 0 0 0 0 0 0 0 0 0 0 0 0 0 0 0 0 0 0 0 0 0 0 0 0 0 0 0 0
0 0 0 0 0 0 0 0 0 0 0 0 0 0 0 0 0 0 0 0 0 0 0 0 0 0 0 0 0 0 0 0 0 0 0 0 0 0
0 0 0 0 0 0 0 0 0 0 0 0 0 0 0 0 0 0 0 0 0 0 0 0 0 0 0 0 0 0 0 0 0 0 0 0 0 0
0 0 0 0 0 0 0 0 0 0 0 0 0 0 0 0 0 0 0 0 0 0 0 0 0 0 0 0 0 0 0 0 0 0 0 0 0 0
0 0 0 0 0 0 0 0 0 0 0 0 0 0 0 0 0 0 0 0 0 0 0 0 0 0 0 0 0 0 0 0 0 0 0 0 0 0
CIN
-47 -67 -33 -78 -71 -54 -38 -34 -21 -17 -30 -0 -8 -0 -92 -104 -22 -0 -0 -0 -0 -0 -0 -0 -0 -0 -0 -0 -0 -29 -0 -24 -9 -2 -2 -1 -4 -6
-71 -73 -81 -78 -83 -79 -60 -48 -43 -24 -24 -0 -0 -0 -0 -0 -0 -0 -0 -0 -0 -0 -0 -0 -0 -0 -0 -0 -0 -0 -0 -0 -2 -1 -10 -0 -0 -0
-78 -81 -71 -55 -51 -59 -54 -57 -43 -53 -25 -31 -29 -0 -0 -0 -32 -0 -0 -0 -0 -0 -0 -0 -0 -0 -0 -0 -0 -0 -0 -0 -0 -0 -0 -0 -0 -0
-48 -65 -69 -65 -66 -69 -69 -55 -44 -58 -1 -47 -69 -40 -0 -0 -0 -0 -0 -0 -0 -0 -0 -0 -0 -0 -0 -0 -0 -0 -0 -0 -0 -0 -0 -0 -0 -0
-0 -54 -71 -78 -81 -92 -103 -97 -98 -97 -96 -74 -15 -6 -0 -0 -0 -0 -0 -0 -0 -0 -0 -0 -0 -0 -0 -0 -0 -0 -0 -0 -0 -0 -0 -0 -0 -0
-0 -0 -0 -0 -0 -0 -0 -0 -54 -81 -85 -61 -49 -72 -73 -92 -0 -0 -0 -0 -0 -0 -0 -0 -0 -0 -0 -0 -0 -0 -0 -0 -0 -0 -0 -0 -0 -0
-0 -0 -0 -0 -0 -0 -0 -0 -0 -0 -0 -9 -10 -13 -45 -2 -0 -0 -0 -0 -0 -0 -0 -0 -0 -0 -0 -0 -0 -0 -0 -0 -0 -0 -0 -0 -0 -0
-0 -0 -0 -0 -0 -0 -0 -0 -0 -0 -0 -0 -0 -0 -0 -3 -0 -0 -0 -0 -0 -0 -0 -0 -0 -0 -0 -0 -0 -0 -0 -0 -0 -0 -0 -0 -0 -0
-0 -0 -0 -0 -0 -0 -0 -0 -0 -0 -0 -0 -0 -0 -0 -0 -0 -0 -0 -0 -0 -0 -0 -0 -0 -0 -0 -0 -0 -0 -0 -0 -0 -0 -0 -0 -1 -5
-0 -0 -0 -0 -0 -0 -0 -0 -0 -0 -0 -0 -0 -0 -0 -0 -0 -6 -0 -0 -0 -0 -0 -0 -0 -0 -0 -0 -0 -0 -0 -0 -0 -0 -0 -0 -0 -0
-0 -0 -0 -0 -0 -0 -0 -0 -0 -0 -0 -0 -0 -0 -0 -0 -0 -0 -0 -0 -0 -0 -0 -0 -0 -0 -0 -0 -0 -0 -0 -0 -0 -0 -0 -0 -0 -0
-0 -0 -0 -0 -0 -0 -0 -0 -0 -0 -0 -0 -0 -0 -0 -0 -0 -0 -0 -0 -0 -0 -0 -0 -0 -0 -0 -0 -0 -0 -0 -0 -0 -0 -0 -0 -0 -0
-0 -0 -0 -0 -0 -0 -0 -0 -0 -0 -0 -0 -0 -0 -0 -0 -0 -0 -0 -0 -0 -0 -0 -0 -0 -0 -0 -0 -0 -0 -0 -0 -0 -0 -0 -0 -0 -0
-0 -0 -0 -0 -0 -0 -0 -0 -0 -0 -0 -0 -0 -0 -0 -0 -0 -0 -0 -0 -0 -0 -0 -0 -0 -0 -0 -0 -0 -0 -0 -0 -0 -0 -0 -0 -0 -0
-0 -0 -0 -0 -0 -0 -0 -0 -0 -0 -0 -0 -0 -0 -0 -0 -0 -0 -0 -0 -0 -0 -0 -0 -0 -0 -0 -0 -0 -0 -0 -0 -0 -0 -0 -0 -0 -0
-0 -0 -0 -0 -0 -0 -0 -0 -0 -0 -0 -0 -0 -0 -0 -0 -0 -0 -0 -0 -0 -0 -0 -0 -0 -0 -0 -0 -0 -0 -0 -0 -0 -0 -0 -0 -0 -0
-0 -0 -0 -0 -0 -0 -0 -0 -0 -0 -0 -0 -0 -0 -0 -0 -0 -0 -0 -0 -0 -0 -0 -0 -0 -0 -0 -0 -0 -0 -0 -0 -0 -0 -0 -0 -0 -0
-0 -0 -0 -0 -0 -0 -0 -0 -0 -0 -0 -0 -0 -0 -0 -0 -0 -0 -0 -0 -0 -0 -0 -0 -0 -0 -0 -0 -0 -0 -0 -0 -0 -0 -0 -0 -0 -0
-0 -0 -0 -0 -0 -0 -0 -0 -0 -0 -0 -0 -0 -0 -0 -0 -0 -0 -0 -0 -0 -0 -0 -0 -0 -0 -0 -0 -0 -0 -0 -0 -0 -0 -0 -0 -0 -0
-0 -0 -0 -0 -0 -0 -0 -0 -0 -0 -0 -0 -0 -0 -0 -0 -0 -0 -0 -0 -0 -0 -0 -0 -0 -0 -0 -0 -0 -0 -0 -0 -0 -0 -0 -0 -0 -0
-0 -0 -0 -0 -0 -0 -0 -0 -0 -0 -0 -0 -0 -0 -0 -0 -0 -0 -0 -0 -0 -0 -0 -0 -0 -0 -0 -0 -0 -0 -0 -0 -0 -0 -0 -0 -0 -0
-0 -0 -0 -0 -0 -0 -0 -0 -0 -0 -0 -0 -0 -0 -0 -0 -0 -0 -0 -0 -0 -0 -0 -0 -0 -0 -0 -0 -0 -0 -0 -0 -0 -0 -0 -0 -0 -0
-0 -0 -0 -0 -0 -0 -0 -0 -0 -0 -0 -0 -0 -0 -0 -0 -0 -0 -0 -0 -0 -0 -0 -0 -0 -0 -0 -0 -0 -0 -0 -0 -0 -0 -0 -0 -0 -1
Wind_Speed
19 21 22 23 22 21 20 20 20 26 27 29 26 24 25 27 28 29 28 24 22 22 22 24 26 27 27 27 28 29 30 29 29 29 27 25 27 25
23 29 25 26 25 24 23 23 23 25 31 33 34 31 29 29 31 30 30 30 34 32 29 28 29 29 29 31 30 30 29 28 29 30 28 28 29 28
22 21 23 25 27 27 26 27 26 24 32 31 36 37 36 36 34 32 30 31 34 32 31 29 33 35 31 30 30 28 27 28 28 26 27 28 28 28
19 20 21 21 21 23 26 26 27 28 28 28 27 33 35 34 34 34 34 35 35 35 34 32 32 33 32 31 28 28 25 25 26 25 25 26 27 28
21 21 22 23 23 24 25 27 29 31 31 32 31 36 36 35 37 37 36 36 37 37 39 38 35 34 35 32 31 28 25 26 24 24 26 26 27 29
24 24 26 26 26 28 29 29 30 32 33 35 37 38 38 37 34 36 39 38 39 37 35 34 35 37 37 33 29 27 24 24 23 25 27 27 29 28
25 27 28 29 29 29 31 30 32 34 35 36 37 37 38 37 36 37 39 39 39 33 33 33 32 33 33 29 27 24 23 24 25 24 25 27 28 30
26 27 28 28 30 31 32 33 33 34 34 34 35 36 35 36 36 37 37 38 40 33 34 34 31 32 30 27 26 24 22 23 23 25 27 27 28 29
29 29 29 29 29 31 31 32 33 34 34 33 34 33 34 33 34 35 36 38 39 38 32 35 31 32 28 27 23 22 22 24 24 27 30 30 29 29
31 32 32 32 31 31 32 33 33 33 34 35 36 36 35 36 36 37 36 37 35 35 32 35 31 31 26 24 23 22 24 24 24 28 29 28 28 30
33 33 32 33 33 32 33 34 35 35 34 34 34 36 37 37 37 37 37 35 39 36 32 33 31 28 27 27 25 22 21 21 23 25 27 30 32 33
36 35 34 34 33 33 34 35 37 36 32 33 33 32 34 35 36 36 37 42 38 38 35 33 33 31 30 27 23 24 24 25 27 29 31 33 35 36
37 43 41 40 39 39 37 38 37 31 29 30 30 30 31 31 31 31 30 30 33 34 31 29 28 28 28 26 25 25 27 29 31 32 31 33 33 36
38 36 35 35 34 33 33 29 26 25 26 27 27 30 29 28 26 24 23 23 23 23 25 25 24 26 29 30 28 27 29 31 32 35 34 34 36 38
26 26 30 30 28 26 25 22 23 21 23 25 22 22 22 24 23 21 20 20 21 23 23 23 23 23 24 27 30 32 32 31 32 31 34 37 40 41
22 25 25 26 22 26 21 21 23 20 19 18 21 20 17 19 21 22 22 22 24 25 23 24 24 24 26 27 30 32 33 35 36 39 40 42 42 41
19 22 22 23 23 23 28 22 20 19 20 19 18 21 20 20 21 22 22 22 22 25 27 28 27 26 26 29 31 33 37 38 39 41 43 45 43 42
20 21 22 23 23 22 19 21 20 20 19 18 19 19 21 21 22 23 23 23 23 25 27 28 30 30 30 31 30 36 38 41 41 42 43 47 48 44
20 20 20 20 20 20 19 19 20 19 18 19 20 19 21 22 22 23 24 24 25 26 28 29 30 32 36 37 33 31 42 41 43 44 43 44 48 46
21 20 20 20 20 20 20 19 18 19 21 22 22 22 22 22 23 24 25 26 26 27 28 30 31 34 36 38 39 39 37 42 43 45 46 44 43 44
22 21 21 20 20 20 19 19 20 21 21 22 22 23 23 23 24 24 24 26 27 28 30 32 32 33 33 33 38 39 39 38 41 44 45 46 48 46
22 22 22 21 21 21 21 21 21 22 22 22 23 23 23 24 24 25 25 26 27 28 29 30 31 33 33 37 41 43 43 42 41 40 39 38 41 40
23 23 23 22 22 22 21 21 21 22 23 23 23 23 23 23 23 24 25 26 27 28 30 32 32 32 35 38 40 42 43 44 44 44 40 35 30 26
Wind_Direction
240 249 254 263 263 266 272 276 273 280 282 283 284 288 291 292 288 291 285 281 280 275 274 279 283 284 286 285 282 280 280 279 276 277 272 274 282 287
254 262 260 267 268 268 267 271 274 277 283 286 286 288 289 292 291 291 287 284 288 289 287 285 286 288 288 290 288 283 279 279 282 279 272 275 281 285
216 228 248 264 270 270 272 271 269 271 287 282 285 285 288 289 288 289 288 287 289 285 283 281 286 288 287 288 291 286 275 275 281 276 275 276 283 285
238 236 235 262 252 260 264 259 257 268 274 257 277 284 286 286 286 288 288 286 287 288 286 287 287 285 287 288 287 287 281 282 283 280 278 279 281 284
247 249 256 262 255 266 269 270 270 274 277 277 277 286 288 287 288 288 288 290 290 289 289 288 287 288 288 292 287 289 282 289 287 286 284 285 287 287
260 255 261 261 260 268 272 271 275 277 278 280 282 284 286 289 288 289 290 291 291 293 291 291 288 288 288 290 290 285 281 285 286 285 286 287 288 287
257 263 263 261 259 262 270 271 275 276 277 279 282 284 285 286 285 290 290 292 293 291 291 293 292 289 289 287 289 286 282 285 288 289 290 291 292 290
259 259 261 260 253 256 256 254 267 272 272 275 278 279 280 284 287 287 288 291 293 293 291 293 293 293 292 291 289 287 290 289 290 292 293 293 293 290
266 267 269 269 267 269 266 259 257 254 257 263 270 271 278 281 285 285 285 286 287 292 291 291 296 297 296 296 290 288 290 293 293 293 296 297 295 292
270 269 270 272 272 272 274 274 271 269 265 265 267 270 277 286 283 284 283 287 292 293 292 288 295 294 297 299 296 295 292 295 298 297 298 301 300 299
274 272 271 271 271 269 272 274 276 279 286 286 287 290 290 288 284 285 283 280 285 289 292 289 293 294 297 297 299 297 301 303 304 306 306 306 304 303
277 275 271 271 272 268 268 271 274 277 279 285 290 297 298 299 296 291 283 281 283 288 291 292 291 288 292 299 299 302 304 305 306 308 309 307 306 305
281 282 286 283 280 280 273 273 275 276 280 285 289 296 302 305 309 303 304 293 286 293 299 295 295 292 298 298 296 300 304 306 306 306 309 309 308 309
292 291 292 290 289 292 290 280 274 273 280 283 290 295 301 307 312 315 315 317 318 308 306 309 303 300 300 297 298 300 305 308 309 308 310 309 309 309
300 304 307 305 303 303 296 301 293 292 291 290 286 298 301 315 311 319 322 328 325 321 322 317 316 315 311 304 304 306 311 311 312 313 312 311 310 310
312 311 315 315 318 317 310 316 314 310 301 308 302 309 315 314 314 318 319 318 318 319 328 329 328 325 318 315 312 312 314 311 313 313 312 311 311 311
326 323 323 315 326 324 324 323 325 323 321 321 323 313 320 331 331 335 333 333 325 321 321 325 331 330 328 321 315 314 313 314 315 315 314 313 313 313
335 330 328 328 326 327 332 325 331 328 331 330 332 330 332 335 331 337 335 334 331 327 325 330 330 326 325 322 322 317 317 317 317 317 317 314 313 315
343 345 342 347 348 347 336 337 338 338 337 333 337 338 336 335 335 330 329 329 327 328 329 332 330 328 323 320 321 324 321 320 320 319 318 316 315 315
356 354 355 356 353 353 351 342 347 345 341 337 335 340 338 336 331 328 328 328 328 330 330 331 330 329 326 323 322 324 328 323 323 321 320 319 317 316
354 352 352 350 352 349 349 348 345 340 339 336 336 338 338 336 335 336 336 336 335 333 331 331 332 333 331 330 326 326 329 330 327 325 324 322 321 320
350 349 348 348 346 345 342 342 341 341 341 341 342 341 340 340 338 337 337 337 336 336 334 335 336 335 334 330 328 328 330 333 334 332 328 323 321 322
344 346 346 346 346 346 346 346 346 345 343 343 343 343 343 341 341 340 339 339 338 338 337 335 337 339 337 335 334 333 334 334 335 335 336 337 331 325